• In Belarus
  • List of Countries
  • For 7 days
  • Water Temperature
  • Satellite Maps
  • Weather Map
  • Weather Widgets
  • user-avatar
    Login

    Hourly Weather Etchmiadzin

    Today, 18 July, Thursday

    Time Temperature Precipitation Wind Pressure Humidity
    00:00 +25°C° 0 mm 2 mps 682 mmHg 50%
    01:00 +24°C° 0 mm 2 mps 682 mmHg 52%
    02:00 +24°C° 0 mm 2 mps 682 mmHg 55%
    03:00 +23°C° 0 mm 2 mps 682 mmHg 57%
    04:00 +24°C° 0 mm 1 mps 682 mmHg 56%
    05:00 +24°C° 0 mm 1 mps 682 mmHg 55%
    06:00 +25°C° 0 mm 1 mps 683 mmHg 54%
    07:00 +27°C° 0 mm 1 mps 683 mmHg 47%
    08:00 +29°C° 0 mm 1 mps 683 mmHg 40%
    09:00 +32°C° 0 mm 1 mps 684 mmHg 33%
    10:00 +34°C° 0 mm 2 mps 684 mmHg 29%
    11:00 +36°C° 0 mm 2 mps 684 mmHg 25%
    12:00 +37°C° 0 mm 2 mps 684 mmHg 20%
    13:00 +38°C° 0 mm 2 mps 683 mmHg 19%
    14:00 +39°C° 0 mm 2 mps 683 mmHg 17%
    15:00 +40°C° 0 mm 2 mps 683 mmHg 15%
    16:00 +39°C° 0 mm 2 mps 683 mmHg 15%
    17:00 +39°C° 0 mm 3 mps 683 mmHg 16%
    18:00 +39°C° 0 mm 3 mps 683 mmHg 17%
    19:00 +36°C° 0 mm 3 mps 683 mmHg 23%
    20:00 +33°C° 0 mm 3 mps 683 mmHg 30%
    21:00 +29°C° 0 mm 4 mps 683 mmHg 36%
    22:00 +28°C° 0 mm 3 mps 683 mmHg 37%
    23:00 +27°C° 0 mm 3 mps 683 mmHg 38%

    Tomorrow, 19 July, Friday

    Time Temperature Precipitation Wind Pressure Humidity
    00:00 +26°C° 0 mm 2 mps 683 mmHg 39%
    01:00 +26°C° 0 mm 2 mps 683 mmHg 41%
    02:00 +25°C° 0 mm 2 mps 683 mmHg 42%
    03:00 +24°C° 0 mm 2 mps 683 mmHg 44%
    04:00 +25°C° 0 mm 2 mps 684 mmHg 45%
    05:00 +25°C° 0 mm 2 mps 684 mmHg 46%
    06:00 +26°C° 0 mm 2 mps 684 mmHg 47%
    07:00 +28°C° 0 mm 2 mps 685 mmHg 42%
    08:00 +30°C° 0 mm 2 mps 685 mmHg 37%
    09:00 +32°C° 0 mm 2 mps 685 mmHg 32%
    10:00 +35°C° 0 mm 2 mps 685 mmHg 28%
    11:00 +36°C° 0 mm 2 mps 686 mmHg 24%
    12:00 +38°C° 0 mm 2 mps 686 mmHg 19%
    13:00 +39°C° 0 mm 2 mps 685 mmHg 18%
    14:00 +39°C° 0 mm 2 mps 685 mmHg 16%
    15:00 +40°C° 0 mm 1 mps 685 mmHg 15%
    16:00 +39°C° 0 mm 2 mps 685 mmHg 18%
    17:00 +38°C° 0 mm 3 mps 685 mmHg 21%
    18:00 +38°C° 0 mm 3 mps 685 mmHg 25%
    19:00 +35°C° 0 mm 4 mps 685 mmHg 32%
    20:00 +32°C° 0 mm 4 mps 685 mmHg 40%
    21:00 +28°C° 0 mm 5 mps 686 mmHg 48%
    22:00 +27°C° 0 mm 4 mps 686 mmHg 51%
    23:00 +26°C° 0 mm 4 mps 686 mmHg 54%

    Day after tomorrow, 20 July, Saturday

    Time Temperature Precipitation Wind Pressure Humidity
    00:00 +25°C° 0 mm 3 mps 686 mmHg 57%
    01:00 +25°C° 0 mm 3 mps 686 mmHg 58%
    02:00 +25°C° 0 mm 3 mps 686 mmHg 59%
    03:00 +24°C° 0 mm 2 mps 686 mmHg 61%
    04:00 +25°C° 0 mm 2 mps 687 mmHg 59%
    05:00 +25°C° 0 mm 2 mps 687 mmHg 58%
    06:00 +25°C° 0 mm 2 mps 687 mmHg 56%
    07:00 +27°C° 0 mm 2 mps 687 mmHg 51%
    08:00 +29°C° 0 mm 2 mps 688 mmHg 45%
    09:00 +31°C° 0 mm 2 mps 688 mmHg 40%
    10:00 +34°C° 0 mm 2 mps 688 mmHg 36%
    11:00 +36°C° 0 mm 2 mps 688 mmHg 31%
    12:00 +38°C° 0 mm 3 mps 688 mmHg 27%
    13:00 +38°C° 0 mm 3 mps 688 mmHg 25%
    14:00 +39°C° 0 mm 3 mps 688 mmHg 23%
    15:00 +41°C° 0 mm 4 mps 688 mmHg 21%
    16:00 +40°C° 0 mm 4 mps 688 mmHg 24%
    17:00 +40°C° 0 mm 5 mps 687 mmHg 28%
    18:00 +39°C° 0 mm 5 mps 687 mmHg 31%
    19:00 +35°C° 0 mm 5 mps 688 mmHg 38%
    20:00 +33°C° 0 mm 5 mps 688 mmHg 45%
    21:00 +29°C° 0 mm 5 mps 688 mmHg 52%
    22:00 +28°C° 0 mm 4 mps 688 mmHg 54%
    23:00 +28°C° 0 mm 3 mps 688 mmHg 56%

    21 July, Sunday

    Time Temperature Precipitation Wind Pressure Humidity
    00:00 +27°C° 0 mm 2 mps 688 mmHg 58%
    01:00 +26°C° 0 mm 2 mps 688 mmHg 60%
    02:00 +25°C° 0 mm 2 mps 688 mmHg 61%
    03:00 +25°C° 0 mm 2 mps 687 mmHg 63%
    04:00 +25°C° 0 mm 2 mps 688 mmHg 60%
    05:00 +26°C° 0 mm 1 mps 688 mmHg 58%
    06:00 +26°C° 0 mm 1 mps 688 mmHg 56%
    07:00 +28°C° 0 mm 1 mps 688 mmHg 49%
    08:00 +31°C° 0 mm 1 mps 688 mmHg 42%
    09:00 +34°C° 0 mm 2 mps 688 mmHg 36%
    10:00 +36°C° 0 mm 2 mps 688 mmHg 31%
    11:00 +38°C° 0 mm 3 mps 688 mmHg 26%
    12:00 +40°C° 0 mm 3 mps 688 mmHg 21%
    13:00 +41°C° 0 mm 4 mps 688 mmHg 19%
    14:00 +42°C° 0 mm 4 mps 687 mmHg 18%
    15:00 +43°C° 0 mm 5 mps 687 mmHg 16%
    16:00 +42°C° 0 mm 5 mps 687 mmHg 20%
    17:00 +41°C° 0 mm 5 mps 687 mmHg 24%
    18:00 +40°C° 0 mm 5 mps 687 mmHg 27%
    19:00 +37°C° 0 mm 5 mps 686 mmHg 32%
    20:00 +34°C° 0 mm 4 mps 686 mmHg 37%
    21:00 +30°C° 0 mm 3 mps 686 mmHg 42%
    22:00 +29°C° 0 mm 3 mps 686 mmHg 45%
    23:00 +28°C° 0 mm 3 mps 686 mmHg 47%

    22 July, Monday

    Time Temperature Precipitation Wind Pressure Humidity
    00:00 +27°C° 0 mm 3 mps 685 mmHg 50%
    01:00 +26°C° 0 mm 3 mps 685 mmHg 51%
    02:00 +25°C° 0 mm 2 mps 685 mmHg 53%
    03:00 +25°C° 0 mm 2 mps 685 mmHg 54%
    04:00 +25°C° 0 mm 2 mps 685 mmHg 53%
    05:00 +26°C° 0 mm 2 mps 685 mmHg 51%
    06:00 +26°C° 0 mm 2 mps 685 mmHg 49%
    07:00 +29°C° 0 mm 2 mps 685 mmHg 43%
    08:00 +31°C° 0 mm 2 mps 685 mmHg 37%
    09:00 +34°C° 0 mm 2 mps 686 mmHg 31%
    10:00 +36°C° 0 mm 2 mps 685 mmHg 28%
    11:00 +38°C° 0 mm 2 mps 685 mmHg 24%
    12:00 +40°C° 0 mm 2 mps 685 mmHg 21%
    13:00 +41°C° 0 mm 2 mps 685 mmHg 20%
    14:00 +41°C° 0 mm 2 mps 684 mmHg 20%
    15:00 +42°C° 0 mm 2 mps 684 mmHg 19%
    16:00 +42°C° 0 mm 4 mps 684 mmHg 24%
    17:00 +40°C° 0 mm 5 mps 684 mmHg 29%
    18:00 +38°C° 0 mm 7 mps 683 mmHg 35%
    19:00 +35°C° 0 mm 6 mps 684 mmHg 40%
    20:00 +32°C° 0 mm 5 mps 684 mmHg 45%
    21:00 +29°C° 0 mm 4 mps 684 mmHg 50%
    22:00 +28°C° 0 mm 4 mps 684 mmHg 51%
    23:00 +27°C° 0 mm 4 mps 684 mmHg 52%

    23 July, Tuesday

    Time Temperature Precipitation Wind Pressure Humidity
    00:00 +26°C° 0 mm 4 mps 684 mmHg 53%
    01:00 +26°C° 0 mm 3 mps 684 mmHg 55%
    02:00 +25°C° 0 mm 3 mps 684 mmHg 57%
    03:00 +25°C° 0 mm 3 mps 684 mmHg 59%
    04:00 +25°C° 0 mm 3 mps 684 mmHg 58%
    05:00 +26°C° 0 mm 2 mps 684 mmHg 56%
    06:00 +26°C° 0 mm 2 mps 684 mmHg 55%
    07:00 +28°C° 0 mm 2 mps 685 mmHg 50%
    08:00 +30°C° 0 mm 2 mps 685 mmHg 45%
    09:00 +32°C° 0 mm 2 mps 685 mmHg 39%
    10:00 +34°C° 0 mm 2 mps 685 mmHg 35%
    11:00 +36°C° 0 mm 2 mps 685 mmHg 31%
    12:00 +37°C° 0 mm 2 mps 685 mmHg 27%
    13:00 +38°C° 0 mm 2 mps 684 mmHg 25%
    14:00 +39°C° 0 mm 2 mps 684 mmHg 23%
    15:00 +40°C° 0 mm 2 mps 684 mmHg 21%
    16:00 +38°C° 0 mm 3 mps 684 mmHg 25%
    17:00 +37°C° 0 mm 4 mps 683 mmHg 29%
    18:00 +36°C° 0 mm 5 mps 683 mmHg 33%
    19:00 +33°C° 0.1 mm 4 mps 683 mmHg 39%
    20:00 +30°C° 0.1 mm 4 mps 684 mmHg 44%
    21:00 +28°C° 0.1 mm 3 mps 684 mmHg 50%
    22:00 +27°C° 0 mm 3 mps 684 mmHg 51%
    23:00 +27°C° 0 mm 2 mps 684 mmHg 52%
    Show more